Time,TemperatureF,DewpointF,PressureIn,WindDirection,WindDirectionDegrees,WindSpeedMPH,WindSpeedGustMPH,Humidity,HourlyPrecipIn,Conditions,Clouds,dailyrainin,SoftwareType,DateUTC
2013-06-16 00:00:00,70.6,69.4,30.05,SSE,150,4.5,7.0,96,0.19,,,0.00,VWS V14.01,2013-06-16 05:00:00,
2013-06-16 00:01:00,70.6,69.4,30.05,SE,141,1.5,5.0,96,0.00,,,0.00,VWS V14.01,2013-06-16 05:01:00,
2013-06-16 00:06:00,70.6,69.4,30.05,South,169,3.0,5.0,96,0.00,,,0.00,VWS V14.01,2013-06-16 05:06:00,
2013-06-16 00:11:00,70.5,69.3,30.04,ESE,105,3.0,8.0,96,0.00,,,0.00,VWS V14.01,2013-06-16 05:11:00,
2013-06-16 00:16:00,70.5,69.3,30.04,SE,142,1.5,8.0,96,0.01,,,0.01,VWS V14.01,2013-06-16 05:16:00,
2013-06-16 00:21:00,70.5,69.3,30.03,SSE,156,1.5,8.0,96,0.01,,,0.01,VWS V14.01,2013-06-16 05:21:00,
2013-06-16 00:26:00,70.4,69.2,30.02,WNW,302,1.5,8.0,96,0.01,,,0.01,VWS V14.01,2013-06-16 05:26:00,
2013-06-16 00:31:00,70.4,69.2,30.02,SSE,148,3.0,8.0,96,0.01,,,0.01,VWS V14.01,2013-06-16 05:31:00,
2013-06-16 00:36:00,70.3,69.1,30.02,East,101,3.0,8.0,96,0.01,,,0.01,VWS V14.01,2013-06-16 05:36:00,
2013-06-16 00:41:00,70.3,69.1,30.02,South,172,3.0,8.0,96,0.01,,,0.01,VWS V14.01,2013-06-16 05:41:00,
2013-06-16 00:46:00,70.3,68.8,30.02,SE,141,1.5,8.0,95,0.01,,,0.01,VWS V14.01,2013-06-16 05:46:00,
2013-06-16 00:51:00,70.4,68.9,30.02,South,184,3.0,8.0,95,0.01,,,0.01,VWS V14.01,2013-06-16 05:51:00,
2013-06-16 00:56:00,70.4,68.9,30.03,SSE,148,3.0,8.0,95,0.01,,,0.01,VWS V14.01,2013-06-16 05:56:00,
2013-06-16 01:00:00,70.6,69.4,30.05,SSE,150,4.5,7.0,96,0.19,,,0.00,VWS V15.00,2013-06-16 06:00:00,
2013-06-16 01:01:00,70.4,68.9,30.03,SE,146,0.0,8.0,95,0.01,,,0.01,VWS V14.01,2013-06-16 06:01:00,
2013-06-16 01:06:00,70.3,68.8,30.03,ESE,123,1.5,8.0,95,0.01,,,0.01,VWS V14.01,2013-06-16 06:06:00,
2013-06-16 01:11:00,70.3,68.8,30.03,SSE,160,0.0,8.0,95,0.01,,,0.01,VWS V14.01,2013-06-16 06:11:00,
2013-06-16 01:15:00,70.3,68.8,30.03,East,89,0.0,8.0,95,0.01,,,0.01,VWS V14.01,2013-06-16 06:15:00,
2013-06-16 01:20:00,70.3,69.1,30.02,South,170,0.0,8.0,96,0.01,,,0.01,VWS V14.01,2013-06-16 06:20:00,
2013-06-16 01:25:00,70.3,69.1,30.02,SSW,204,1.5,8.0,96,0.01,,,0.01,VWS V14.01,2013-06-16 06:25:00,
2013-06-16 01:30:00,70.3,69.1,30.02,ESE,116,0.0,8.0,96,0.01,,,0.01,VWS V14.01,2013-06-16 06:30:00,
2013-06-16 01:35:00,70.3,69.1,30.02,ESE,108,1.5,8.0,96,0.01,,,0.01,VWS V14.01,2013-06-16 06:35:00,
2013-06-16 01:40:00,70.2,69.0,30.01,SE,130,0.0,8.0,96,0.01,,,0.01,VWS V14.01,2013-06-16 06:40:00,
2013-06-16 01:45:00,70.2,69.0,30.01,SSE,158,4.5,8.0,96,0.01,,,0.01,VWS V14.01,2013-06-16 06:45:00,
2013-06-16 01:50:00,70.1,68.9,30.01,SSW,195,1.5,8.0,96,0.01,,,0.01,VWS V14.01,2013-06-16 06:50:00,
2013-06-16 01:55:00,70.1,68.9,30.01,East,90,0.0,8.0,96,0.01,,,0.01,VWS V14.01,2013-06-16 06:55:00,
2013-06-16 02:00:00,70.1,68.9,30.01,SSE,156,0.0,1.0,96,0.00,,,0.01,VWS V14.01,2013-06-16 07:00:00,
2013-06-16 02:05:00,70.0,68.8,30.01,South,169,1.5,1.5,96,0.00,,,0.01,VWS V14.01,2013-06-16 07:05:00,
2013-06-16 02:10:00,70.1,68.9,30.01,SSW,202,1.5,2.0,96,0.00,,,0.01,VWS V14.01,2013-06-16 07:10:00,
2013-06-16 02:15:00,70.1,68.9,30.01,SE,129,1.5,2.0,96,0.00,,,0.01,VWS V14.01,2013-06-16 07:15:00,
2013-06-16 02:20:00,70.2,69.0,30.01,SSE,159,1.5,3.0,96,0.00,,,0.01,VWS V14.01,2013-06-16 07:20:00,
2013-06-16 02:25:00,70.2,68.7,30.01,SE,135,9.0,9.0,95,0.00,,,0.01,VWS V14.01,2013-06-16 07:25:00,
2013-06-16 02:30:00,70.3,68.8,30.00,ESE,120,0.0,6.0,95,0.00,,,0.01,VWS V14.01,2013-06-16 07:30:00,
2013-06-16 02:35:00,70.4,68.9,30.00,East,99,1.5,6.0,95,0.00,,,0.01,VWS V14.01,2013-06-16 07:35:00,
2013-06-16 02:40:00,70.4,68.9,30.00,South,181,1.5,6.0,95,0.00,,,0.01,VWS V14.01,2013-06-16 07:40:00,
2013-06-16 02:45:00,70.5,69.0,30.00,South,172,0.0,6.0,95,0.00,,,0.01,VWS V14.01,2013-06-16 07:45:00,
2013-06-16 02:50:00,70.5,69.0,30.01,SSE,163,1.5,6.0,95,0.00,,,0.01,VWS V14.01,2013-06-16 07:50:00,
2013-06-16 02:55:00,70.6,69.1,30.01,SSE,147,0.0,6.0,95,0.00,,,0.01,VWS V14.01,2013-06-16 07:55:00,
2013-06-16 03:00:00,70.6,69.1,30.01,SE,136,0.0,6.0,95,0.00,,,0.01,VWS V14.01,2013-06-16 08:00:00,
2013-06-16 03:05:00,70.6,69.1,30.01,SSE,155,0.0,6.0,95,0.00,,,0.01,VWS V14.01,2013-06-16 08:05:00,
2013-06-16 03:10:00,70.5,69.0,30.01,South,173,0.0,6.0,95,0.00,,,0.01,VWS V14.01,2013-06-16 08:10:00,
2013-06-16 03:15:00,70.4,68.9,30.01,SSE,160,1.5,6.0,95,0.00,,,0.01,VWS V14.01,2013-06-16 08:15:00,
2013-06-16 03:20:00,70.4,68.9,30.01,SSE,149,1.5,6.0,95,0.00,,,0.01,VWS V14.01,2013-06-16 08:20:00,
2013-06-16 03:25:00,70.4,68.9,30.01,SSE,152,0.0,6.0,95,0.00,,,0.01,VWS V14.01,2013-06-16 08:25:00,
2013-06-16 03:30:00,70.4,68.9,30.02,SSE,155,0.0,6.0,95,0.00,,,0.01,VWS V14.01,2013-06-16 08:30:00,
2013-06-16 03:35:00,70.4,68.9,30.02,SSE,155,0.0,6.0,95,0.00,,,0.01,VWS V14.01,2013-06-16 08:35:00,
2013-06-16 03:40:00,70.4,68.9,30.02,SSE,155,0.0,6.0,95,0.00,,,0.01,VWS V14.01,2013-06-16 08:40:00,
2013-06-16 03:45:00,70.4,69.2,30.02,SSE,155,0.0,6.0,96,0.00,,,0.01,VWS V14.01,2013-06-16 08:45:00,
2013-06-16 03:50:00,70.4,69.2,30.02,SSE,155,0.0,6.0,96,0.00,,,0.01,VWS V14.01,2013-06-16 08:50:00,
2013-06-16 03:55:00,70.3,69.1,30.02,South,181,0.0,6.0,96,0.00,,,0.01,VWS V14.01,2013-06-16 08:55:00,
2013-06-16 04:00:00,70.3,69.1,30.02,South,181,0.0,1.0,96,0.00,,,0.01,VWS V14.01,2013-06-16 09:00:00,
2013-06-16 04:05:00,70.3,69.1,30.02,SSW,198,0.0,1.0,96,0.00,,,0.01,VWS V14.01,2013-06-16 09:05:00,
2013-06-16 04:10:00,70.3,69.1,30.02,SSW,198,0.0,1.0,96,0.00,,,0.01,VWS V14.01,2013-06-16 09:10:00,
2013-06-16 04:15:00,70.2,69.0,30.02,SSW,197,0.0,1.0,96,0.00,,,0.01,VWS V14.01,2013-06-16 09:15:00,
2013-06-16 04:20:00,70.3,69.1,30.02,SSW,197,0.0,1.0,96,0.00,,,0.01,VWS V14.01,2013-06-16 09:20:00,
2013-06-16 04:25:00,70.3,69.1,30.02,SSE,165,0.0,2.0,96,0.00,,,0.01,VWS V14.01,2013-06-16 09:25:00,
2013-06-16 04:30:00,70.3,69.1,30.02,SSE,167,0.0,2.0,96,0.00,,,0.01,VWS V14.01,2013-06-16 09:30:00,
2013-06-16 04:35:00,70.3,69.1,30.03,SSE,167,0.0,2.0,96,0.00,,,0.01,VWS V14.01,2013-06-16 09:35:00,
2013-06-16 04:40:00,70.3,69.1,30.03,SSE,167,0.0,2.0,96,0.00,,,0.01,VWS V14.01,2013-06-16 09:40:00,
2013-06-16 04:45:00,70.2,69.3,30.03,SSE,167,0.0,2.0,97,0.00,,,0.01,VWS V14.01,2013-06-16 09:45:00,
2013-06-16 04:50:00,70.2,69.3,30.03,SSE,167,0.0,2.0,97,0.00,,,0.01,VWS V14.01,2013-06-16 09:50:00,
2013-06-16 04:55:00,70.2,69.3,30.04,SSE,168,0.0,2.0,97,0.00,,,0.01,VWS V14.01,2013-06-16 09:55:00,
2013-06-16 05:00:00,70.1,69.2,30.04,SSE,168,0.0,2.0,97,0.00,,,0.01,VWS V14.01,2013-06-16 10:00:00,
2013-06-16 05:05:00,70.2,69.3,30.03,SSE,167,0.0,2.0,97,0.00,,,0.01,VWS V14.01,2013-06-16 10:05:00,
2013-06-16 05:10:00,70.2,69.3,30.03,SSE,167,0.0,2.0,97,0.00,,,0.01,VWS V14.01,2013-06-16 10:10:00,
2013-06-16 05:15:00,70.2,69.3,30.03,SSE,168,0.0,2.0,97,0.00,,,0.01,VWS V14.01,2013-06-16 10:15:00,
2013-06-16 05:20:00,70.2,69.3,30.03,South,179,1.5,2.0,97,0.00,,,0.01,VWS V14.01,2013-06-16 10:20:00,
2013-06-16 05:25:00,70.3,69.4,30.03,South,181,3.0,3.0,97,0.00,,,0.01,VWS V14.01,2013-06-16 10:25:00,
2013-06-16 05:30:00,70.4,69.2,30.03,SSE,168,0.0,2.0,96,0.00,,,0.01,VWS V14.01,2013-06-16 10:30:00,
2013-06-16 05:35:00,70.4,69.2,30.03,South,183,0.0,2.0,96,0.00,,,0.01,VWS V14.01,2013-06-16 10:35:00,
2013-06-16 05:40:00,70.5,69.3,30.03,South,173,0.0,2.0,96,0.00,,,0.01,VWS V14.01,2013-06-16 10:40:00,
2013-06-16 05:45:00,70.5,69.3,30.03,South,169,0.0,2.0,96,0.00,,,0.01,VWS V14.01,2013-06-16 10:45:00,
2013-06-16 05:50:00,70.5,69.3,30.03,SSE,164,1.5,2.0,96,0.00,,,0.01,VWS V14.01,2013-06-16 10:50:00,
2013-06-16 05:55:00,70.6,69.4,30.03,South,177,0.0,3.0,96,0.00,,,0.01,VWS V14.01,2013-06-16 10:55:00,
2013-06-16 06:00:00,70.6,69.4,30.03,SSE,148,1.5,1.5,96,0.00,,,0.01,VWS V14.01,2013-06-16 11:00:00,
2013-06-16 06:05:00,70.6,69.4,30.03,SE,142,1.5,4.0,96,0.00,,,0.01,VWS V14.01,2013-06-16 11:05:00,
2013-06-16 06:10:00,70.6,69.4,30.03,South,169,1.5,4.0,96,0.00,,,0.01,VWS V14.01,2013-06-16 11:10:00,
2013-06-16 06:15:00,70.7,69.5,30.03,South,183,1.5,4.0,96,0.00,,,0.01,VWS V14.01,2013-06-16 11:15:00,
2013-06-16 06:20:00,70.7,69.5,30.04,SSE,158,3.0,4.0,96,0.00,,,0.01,VWS V14.01,2013-06-16 11:20:00,
2013-06-16 06:25:00,70.9,69.4,30.04,South,183,0.0,4.0,95,0.00,,,0.01,VWS V14.01,2013-06-16 11:25:00,
2013-06-16 06:30:00,71.1,69.6,30.04,SSE,152,0.0,4.0,95,0.00,,,0.01,VWS V14.01,2013-06-16 11:30:00,
2013-06-16 06:35:00,71.1,69.6,30.04,South,188,1.5,4.0,95,0.00,,,0.01,VWS V14.01,2013-06-16 11:35:00,
2013-06-16 06:40:00,71.2,69.7,30.04,South,188,0.0,4.0,95,0.00,,,0.01,VWS V14.01,2013-06-16 11:40:00,
2013-06-16 06:45:00,71.2,69.7,30.04,SSW,193,1.5,4.0,95,0.00,,,0.01,VWS V14.01,2013-06-16 11:45:00,
2013-06-16 06:50:00,71.3,69.8,30.04,South,176,1.5,4.0,95,0.00,,,0.01,VWS V14.01,2013-06-16 11:50:00,
2013-06-16 06:55:00,71.4,69.6,30.04,South,176,1.5,4.0,94,0.00,,,0.01,VWS V14.01,2013-06-16 11:55:00,
2013-06-16 07:00:00,71.6,69.5,30.04,SSE,155,0.0,4.0,93,0.00,,,0.01,VWS V14.01,2013-06-16 12:00:00,
2013-06-16 07:05:00,71.8,69.7,30.04,SE,139,4.5,4.5,93,0.00,,,0.01,VWS V14.01,2013-06-16 12:05:00,
2013-06-16 07:10:00,71.9,69.8,30.05,SSE,162,1.5,4.0,93,0.00,,,0.01,VWS V14.01,2013-06-16 12:10:00,
2013-06-16 07:15:00,72.0,69.9,30.04,SSE,163,3.0,4.0,93,0.00,,,0.01,VWS V14.01,2013-06-16 12:15:00,
2013-06-16 07:20:00,72.1,70.0,30.04,SSE,160,0.0,4.0,93,0.00,,,0.01,VWS V14.01,2013-06-16 12:20:00,
2013-06-16 07:25:00,72.2,69.8,30.05,SSW,193,0.0,4.0,92,0.00,,,0.01,VWS V14.01,2013-06-16 12:25:00,
2013-06-16 07:30:00,72.3,69.8,30.05,SSE,153,1.5,4.0,92,0.00,,,0.01,VWS V14.01,2013-06-16 12:30:00,
2013-06-16 07:35:00,72.4,69.9,30.05,SE,142,0.0,4.0,92,0.00,,,0.01,VWS V14.01,2013-06-16 12:35:00,
2013-06-16 07:40:00,72.4,69.9,30.05,South,177,1.5,4.0,92,0.00,,,0.01,VWS V14.01,2013-06-16 12:40:00,
2013-06-16 07:45:00,72.5,70.1,30.05,South,170,3.0,4.0,92,0.00,,,0.01,VWS V14.01,2013-06-16 12:45:00,
2013-06-16 07:50:00,72.6,69.8,30.05,SW,217,0.0,4.0,91,0.00,,,0.01,VWS V14.01,2013-06-16 12:50:00,
2013-06-16 07:55:00,72.7,69.9,30.05,SSE,154,0.0,4.0,91,0.00,,,0.01,VWS V14.01,2013-06-16 12:55:00,
2013-06-16 08:00:00,72.7,69.9,30.06,SSW,198,0.0,3.0,91,0.00,,,0.01,VWS V14.01,2013-06-16 13:00:00,
2013-06-16 08:05:00,72.9,70.1,30.06,SSE,162,3.0,4.0,91,0.00,,,0.01,VWS V14.01,2013-06-16 13:05:00,
2013-06-16 08:10:00,73.0,70.2,30.06,SSE,166,0.0,5.0,91,0.00,,,0.01,VWS V14.01,2013-06-16 13:10:00,
2013-06-16 08:15:00,73.2,70.1,30.06,SSE,153,3.0,5.0,90,0.00,,,0.01,VWS V14.01,2013-06-16 13:15:00,
2013-06-16 08:20:00,73.4,70.3,30.05,East,86,3.0,5.0,90,0.00,,,0.01,VWS V14.01,2013-06-16 13:20:00,
2013-06-16 08:25:00,73.8,70.4,30.05,SE,143,1.5,5.0,89,0.00,,,0.01,VWS V14.01,2013-06-16 13:25:00,
2013-06-16 08:30:00,74.1,70.0,30.05,SSE,167,1.5,5.0,87,0.00,,,0.01,VWS V14.01,2013-06-16 13:30:00,
2013-06-16 08:35:00,74.6,70.5,30.05,South,176,3.0,5.0,87,0.00,,,0.01,VWS V14.01,2013-06-16 13:35:00,
2013-06-16 08:40:00,75.3,70.5,30.05,SE,146,4.5,7.0,85,0.00,,,0.01,VWS V14.01,2013-06-16 13:40:00,
2013-06-16 08:45:00,76.0,71.2,30.05,SE,141,1.5,7.0,85,0.00,,,0.01,VWS V14.01,2013-06-16 13:45:00,
2013-06-16 08:50:00,77.0,72.2,30.05,SSE,162,3.0,7.0,85,0.00,,,0.01,VWS V14.01,2013-06-16 13:50:00,
2013-06-16 08:55:00,77.1,71.2,30.05,SSW,199,4.5,7.0,82,0.00,,,0.01,VWS V14.01,2013-06-16 13:55:00,
2013-06-16 09:00:00,77.1,71.5,30.05,South,186,1.5,7.0,83,0.00,,,0.01,VWS V14.01,2013-06-16 14:00:00,
2013-06-16 09:05:00,77.2,70.9,30.05,SSW,212,1.5,7.0,81,0.00,,,0.01,VWS V14.01,2013-06-16 14:05:00,
2013-06-16 09:10:00,77.2,71.3,30.05,South,172,0.0,7.0,82,0.00,,,0.01,VWS V14.01,2013-06-16 14:10:00,
2013-06-16 09:15:00,77.2,70.6,30.05,SSW,205,1.5,7.0,80,0.00,,,0.01,VWS V14.01,2013-06-16 14:15:00,
2013-06-16 09:20:00,77.2,70.9,30.05,SSE,155,1.5,7.0,81,0.00,,,0.01,VWS V14.01,2013-06-16 14:20:00,
2013-06-16 09:25:00,77.0,70.4,30.06,South,172,3.0,7.0,80,0.00,,,0.01,VWS V14.01,2013-06-16 14:25:00,
2013-06-16 09:30:00,76.8,70.5,30.06,SSE,163,1.5,7.0,81,0.00,,,0.01,VWS V14.01,2013-06-16 14:30:00,
2013-06-16 09:35:00,76.9,70.6,30.06,South,191,3.0,7.0,81,0.00,,,0.01,VWS V14.01,2013-06-16 14:35:00,
2013-06-16 09:40:00,77.0,70.4,30.06,SSW,195,3.0,7.0,80,0.00,,,0.01,VWS V14.01,2013-06-16 14:40:00,
2013-06-16 09:45:00,77.2,70.6,30.06,SSE,167,3.0,8.0,80,0.00,,,0.01,VWS V14.01,2013-06-16 14:45:00,
2013-06-16 09:50:00,77.2,70.6,30.06,SSE,153,6.0,8.0,80,0.00,,,0.01,VWS V14.01,2013-06-16 14:50:00,
2013-06-16 09:57:00,77.2,70.6,30.05,SSE,165,3.0,3.0,80,0.00,,,0.01,VWS V14.01,2013-06-16 14:57:00,
2013-06-16 10:00:00,77.4,70.8,30.05,SSE,153,4.5,4.5,80,0.00,,,0.01,VWS V14.01,2013-06-16 15:00:00,
2013-06-16 10:22:00,78.8,71.7,30.05,South,174,6.0,6.0,79,0.00,,,0.01,VWS V14.01,2013-06-16 15:22:00,
2013-06-16 10:27:00,78.1,71.1,30.04,South,190,0.0,4.0,79,0.00,,,0.01,VWS V14.01,2013-06-16 15:27:00,
2013-06-16 10:32:00,78.6,71.9,30.04,SSE,167,1.5,5.0,80,0.00,,,0.01,VWS V14.01,2013-06-16 15:32:00,
2013-06-16 10:37:00,79.6,72.5,30.04,SW,215,1.5,5.0,79,0.00,,,0.01,VWS V14.01,2013-06-16 15:37:00,
2013-06-16 10:42:00,80.4,72.5,30.04,SSW,193,9.0,9.0,77,0.00,,,0.01,VWS V14.01,2013-06-16 15:42:00,
2013-06-16 10:47:00,80.8,71.7,30.05,SSW,203,1.5,7.0,74,0.00,,,0.01,VWS V14.01,2013-06-16 15:47:00,
2013-06-16 10:52:00,81.0,71.5,30.05,SSE,162,1.5,7.0,73,0.00,,,0.01,VWS V14.01,2013-06-16 15:52:00,
2013-06-16 10:57:00,81.4,71.9,30.05,SW,219,3.0,7.0,73,0.00,,,0.01,VWS V14.01,2013-06-16 15:57:00,
2013-06-16 11:02:00,81.9,72.4,30.05,SSW,200,1.5,7.0,73,0.00,,,0.01,VWS V14.01,2013-06-16 16:02:00,
2013-06-16 11:07:00,81.8,71.9,30.05,SW,233,0.0,8.0,72,0.00,,,0.01,VWS V14.01,2013-06-16 16:07:00,
2013-06-16 11:12:00,81.4,71.9,30.05,SSE,163,0.0,8.0,73,0.00,,,0.01,VWS V14.01,2013-06-16 16:12:00,
2013-06-16 11:17:00,81.5,71.6,30.05,SW,219,7.5,9.0,72,0.00,,,0.01,VWS V14.01,2013-06-16 16:17:00,
2013-06-16 11:22:00,81.0,71.5,30.05,SW,218,3.0,9.0,73,0.00,,,0.01,VWS V14.01,2013-06-16 16:22:00,
2013-06-16 11:27:00,81.1,72.0,30.05,SSW,210,1.5,9.0,74,0.00,,,0.01,VWS V14.01,2013-06-16 16:27:00,
2013-06-16 11:32:00,81.7,72.6,30.05,SSE,166,3.0,9.0,74,0.00,,,0.01,VWS V14.01,2013-06-16 16:32:00,
2013-06-16 11:37:00,82.3,72.4,30.05,SSW,210,4.5,9.0,72,0.00,,,0.01,VWS V14.01,2013-06-16 16:37:00,
2013-06-16 11:42:00,82.6,72.7,30.05,South,172,6.0,9.0,72,0.00,,,0.01,VWS V14.01,2013-06-16 16:42:00,
2013-06-16 11:47:00,82.8,72.4,30.05,South,177,7.5,9.0,71,0.00,,,0.01,VWS V14.01,2013-06-16 16:47:00,
2013-06-16 11:52:00,83.0,72.6,30.05,SSW,210,0.0,10.0,71,0.00,,,0.01,VWS V14.01,2013-06-16 16:52:00,
2013-06-16 11:57:00,83.5,73.1,30.05,WSW,252,0.0,11.0,71,0.00,,,0.01,VWS V14.01,2013-06-16 16:57:00,
2013-06-16 12:00:00,83.6,73.2,30.05,WSW,242,1.5,11.0,71,0.00,,,0.01,VWS V14.01,2013-06-16 17:00:00,
2013-06-16 12:02:00,83.7,72.5,30.05,SW,231,7.5,7.5,69,0.00,,,0.01,VWS V14.01,2013-06-16 17:02:00,
2013-06-16 12:07:00,83.6,71.9,30.05,South,181,6.0,8.0,68,0.00,,,0.01,VWS V14.01,2013-06-16 17:07:00,
2013-06-16 12:12:00,83.6,72.8,30.05,SW,215,1.5,8.0,70,0.00,,,0.01,VWS V14.01,2013-06-16 17:12:00,
2013-06-16 12:17:00,83.8,72.1,30.05,West,266,1.5,8.0,68,0.00,,,0.01,VWS V14.01,2013-06-16 17:17:00,
2013-06-16 12:22:00,84.1,72.4,30.05,SSW,204,1.5,9.0,68,0.00,,,0.01,VWS V14.01,2013-06-16 17:22:00,
2013-06-16 12:27:00,84.8,73.1,30.04,South,186,6.0,9.0,68,0.00,,,0.01,VWS V14.01,2013-06-16 17:27:00,
2013-06-16 12:32:00,84.9,72.3,30.05,SW,214,0.0,9.0,66,0.00,,,0.01,VWS V14.01,2013-06-16 17:32:00,
2013-06-16 12:37:00,84.8,72.6,30.04,SSW,200,1.5,9.0,67,0.00,,,0.01,VWS V14.01,2013-06-16 17:37:00,
2013-06-16 12:42:00,84.8,72.2,30.04,SW,221,6.0,9.0,66,0.00,,,0.01,VWS V14.01,2013-06-16 17:42:00,
2013-06-16 12:47:00,85.0,72.8,30.04,SSW,204,3.0,9.0,67,0.00,,,0.01,VWS V14.01,2013-06-16 17:47:00,
2013-06-16 12:52:00,84.9,72.3,30.04,SE,146,3.0,9.0,66,0.00,,,0.01,VWS V14.01,2013-06-16 17:52:00,
2013-06-16 12:57:00,84.9,71.8,30.04,South,181,4.5,9.0,65,0.00,,,0.01,VWS V14.01,2013-06-16 17:57:00,
2013-06-16 13:00:00,83.6,73.2,30.05,WSW,242,1.5,11.0,71,0.00,,,0.01,VWS V15.00,2013-06-16 18:00:00,
2013-06-16 13:02:00,84.8,71.7,30.04,SW,228,1.5,9.0,65,0.00,,,0.01,VWS V14.01,2013-06-16 18:02:00,
2013-06-16 13:07:00,84.5,72.3,30.03,SSE,147,1.5,9.0,67,0.00,,,0.01,VWS V14.01,2013-06-16 18:07:00,
2013-06-16 13:12:00,84.4,71.8,30.03,SSE,151,0.0,9.0,66,0.00,,,0.01,VWS V14.01,2013-06-16 18:12:00,
2013-06-16 13:17:00,84.9,72.3,30.03,SSE,168,4.5,9.0,66,0.00,,,0.01,VWS V14.01,2013-06-16 18:17:00,
2013-06-16 13:22:00,85.2,73.4,30.03,SW,226,0.0,9.0,68,0.00,,,0.01,VWS V14.01,2013-06-16 18:22:00,
2013-06-16 13:27:00,85.9,72.8,30.03,West,260,0.0,9.0,65,0.00,,,0.01,VWS V14.01,2013-06-16 18:27:00,
2013-06-16 13:32:00,85.7,72.6,30.03,SE,145,4.5,9.0,65,0.00,,,0.01,VWS V14.01,2013-06-16 18:32:00,
2013-06-16 13:37:00,85.7,73.9,30.02,SSW,198,0.0,9.0,68,0.00,,,0.01,VWS V14.01,2013-06-16 18:37:00,
2013-06-16 13:42:00,86.2,73.5,30.03,SSW,195,3.0,9.0,66,0.00,,,0.01,VWS V14.01,2013-06-16 18:42:00,
2013-06-16 13:47:00,86.1,72.0,30.03,WNW,302,0.0,9.0,63,0.00,,,0.01,VWS V14.01,2013-06-16 18:47:00,
2013-06-16 13:52:00,86.1,73.0,30.03,SE,129,0.0,9.0,65,0.00,,,0.01,VWS V14.01,2013-06-16 18:52:00,
2013-06-16 13:57:00,86.6,73.9,30.02,SSE,157,0.0,9.0,66,0.00,,,0.01,VWS V14.01,2013-06-16 18:57:00,
2013-06-16 14:00:00,86.6,73.9,30.02,NE,56,1.5,9.0,66,0.00,,,0.01,VWS V14.01,2013-06-16 19:00:00,
2013-06-16 14:02:00,86.4,72.3,30.02,ENE,77,0.0,1.0,63,0.00,,,0.01,VWS V14.01,2013-06-16 19:02:00,
2013-06-16 14:07:00,86.4,74.6,30.02,NNE,18,0.0,4.0,68,0.00,,,0.01,VWS V14.01,2013-06-16 19:07:00,
2013-06-16 14:12:00,86.3,73.6,30.02,NE,53,1.5,4.0,66,0.00,,,0.01,VWS V14.01,2013-06-16 19:12:00,
2013-06-16 14:17:00,86.1,72.5,30.02,SSE,160,1.5,7.0,64,0.00,,,0.01,VWS V14.01,2013-06-16 19:17:00,
2013-06-16 14:22:00,86.4,73.7,30.02,SE,134,3.0,7.0,66,0.00,,,0.01,VWS V14.01,2013-06-16 19:22:00,
2013-06-16 14:27:00,87.0,73.4,30.02,SSE,162,1.5,7.0,64,0.00,,,0.01,VWS V14.01,2013-06-16 19:27:00,
2013-06-16 14:32:00,87.3,73.6,30.02,SSE,160,0.0,7.0,64,0.00,,,0.01,VWS V14.01,2013-06-16 19:32:00,
2013-06-16 14:37:00,87.8,74.1,30.02,SSE,155,4.5,7.0,64,0.00,,,0.01,VWS V14.01,2013-06-16 19:37:00,
2013-06-16 14:42:00,87.9,74.7,30.02,SSW,194,1.5,7.0,65,0.00,,,0.01,VWS V14.01,2013-06-16 19:42:00,
2013-06-16 14:47:00,88.1,73.9,30.01,SW,215,0.0,7.0,63,0.00,,,0.01,VWS V14.01,2013-06-16 19:47:00,
2013-06-16 14:52:00,88.2,73.6,30.01,ESE,123,0.0,7.0,62,0.00,,,0.01,VWS V14.01,2013-06-16 19:52:00,
2013-06-16 14:57:00,88.1,73.9,30.01,ESE,105,0.0,7.0,63,0.00,,,0.01,VWS V14.01,2013-06-16 19:57:00,
2013-06-16 15:00:00,86.6,73.9,30.02,NE,56,1.5,9.0,66,0.00,,,0.01,VWS V15.00,2013-06-16 20:00:00,
2013-06-16 15:02:00,88.2,73.6,30.01,SSE,163,0.0,7.0,62,0.00,,,0.01,VWS V14.01,2013-06-16 20:02:00,
2013-06-16 15:07:00,88.3,72.2,30.01,SSW,194,1.5,7.0,59,0.00,,,0.01,VWS V14.01,2013-06-16 20:07:00,
2013-06-16 15:12:00,87.9,72.8,30.00,ESE,116,1.5,7.0,61,0.00,,,0.01,VWS V14.01,2013-06-16 20:12:00,
2013-06-16 15:17:00,88.0,72.4,30.00,South,173,0.0,7.0,60,0.00,,,0.01,VWS V14.01,2013-06-16 20:17:00,
2013-06-16 15:22:00,88.2,72.1,30.00,North,8,1.5,7.0,59,0.00,,,0.01,VWS V14.01,2013-06-16 20:22:00,
2013-06-16 15:27:00,88.1,73.4,30.00,SSW,210,0.0,7.0,62,0.00,,,0.01,VWS V14.01,2013-06-16 20:27:00,
2013-06-16 15:32:00,88.5,73.3,30.00,SSE,165,1.5,7.0,61,0.00,,,0.01,VWS V14.01,2013-06-16 20:32:00,
2013-06-16 15:37:00,88.7,72.5,30.00,SSE,163,0.0,7.0,59,0.00,,,0.01,VWS V14.01,2013-06-16 20:37:00,
2013-06-16 15:42:00,88.8,74.1,29.99,SSE,150,0.0,7.0,62,0.00,,,0.01,VWS V14.01,2013-06-16 20:42:00,
2013-06-16 15:47:00,88.8,73.6,29.99,SSW,194,3.0,7.0,61,0.00,,,0.01,VWS V14.01,2013-06-16 20:47:00,
2013-06-16 15:52:00,88.7,74.5,29.99,NNW,343,1.5,7.0,63,0.00,,,0.01,VWS V14.01,2013-06-16 20:52:00,
2013-06-16 15:57:00,88.7,74.5,29.99,NNW,341,3.0,7.0,63,0.00,,,0.01,VWS V14.01,2013-06-16 20:57:00,
2013-06-16 16:00:00,88.2,74.5,29.99,NNW,335,3.0,7.0,64,0.00,,,0.01,VWS V14.01,2013-06-16 21:00:00,
2013-06-16 16:02:00,87.5,73.4,29.99,NNE,31,4.5,5.0,63,0.00,,,0.01,VWS V14.01,2013-06-16 21:02:00,
2013-06-16 16:07:00,87.4,74.2,29.98,NNW,340,0.0,5.0,65,0.00,,,0.01,VWS V14.01,2013-06-16 21:07:00,
2013-06-16 16:12:00,87.8,73.6,29.98,North,355,3.0,5.0,63,0.00,,,0.01,VWS V14.01,2013-06-16 21:12:00,
2013-06-16 16:17:00,87.8,73.6,29.98,SE,145,0.0,5.0,63,0.00,,,0.01,VWS V14.01,2013-06-16 21:17:00,
2013-06-16 16:22:00,88.1,73.9,29.98,South,189,0.0,5.0,63,0.00,,,0.01,VWS V14.01,2013-06-16 21:22:00,
2013-06-16 16:27:00,88.4,72.8,29.99,SSW,193,0.0,5.0,60,0.00,,,0.01,VWS V14.01,2013-06-16 21:27:00,
2013-06-16 16:32:00,88.7,72.5,29.98,SSE,164,4.5,5.0,59,0.00,,,0.01,VWS V14.01,2013-06-16 21:32:00,
2013-06-16 16:37:00,88.6,72.9,29.99,SSE,166,0.0,5.0,60,0.00,,,0.01,VWS V14.01,2013-06-16 21:37:00,
2013-06-16 16:42:00,88.8,74.6,29.99,NNE,18,1.5,5.0,63,0.00,,,0.01,VWS V14.01,2013-06-16 21:42:00,
2013-06-16 16:47:00,88.9,72.7,29.99,ENE,75,0.0,5.0,59,0.00,,,0.01,VWS V14.01,2013-06-16 21:47:00,
2013-06-16 16:52:00,88.9,72.2,29.98,NNW,328,1.5,5.0,58,0.00,,,0.01,VWS V14.01,2013-06-16 21:52:00,
2013-06-16 16:57:00,88.3,72.2,29.98,East,84,0.0,5.0,59,0.00,,,0.01,VWS V14.01,2013-06-16 21:57:00,
2013-06-16 17:00:00,88.2,74.5,29.99,NNW,335,3.0,7.0,64,0.00,,,0.01,VWS V15.00,2013-06-16 22:00:00,
2013-06-16 17:02:00,88.4,74.2,29.98,SSE,166,0.0,5.0,63,0.00,,,0.01,VWS V14.01,2013-06-16 22:02:00,
2013-06-16 17:07:00,88.3,73.6,29.98,South,183,1.5,5.0,62,0.00,,,0.01,VWS V14.01,2013-06-16 22:07:00,
2013-06-16 17:12:00,88.3,73.6,29.98,SE,143,0.0,5.0,62,0.00,,,0.01,VWS V14.01,2013-06-16 22:12:00,
2013-06-16 17:17:00,88.3,73.2,29.99,North,354,0.0,5.0,61,0.00,,,0.01,VWS V14.01,2013-06-16 22:17:00,
2013-06-16 17:22:00,87.7,72.6,29.99,WNW,290,1.5,5.0,61,0.00,,,0.01,VWS V14.01,2013-06-16 22:22:00,
2013-06-16 17:27:00,87.1,72.5,29.99,NW,326,0.0,5.0,62,0.00,,,0.01,VWS V14.01,2013-06-16 22:27:00,
2013-06-16 17:32:00,87.0,73.4,29.98,NNW,343,0.0,5.0,64,0.00,,,0.01,VWS V14.01,2013-06-16 22:32:00,
2013-06-16 17:37:00,87.2,74.0,29.98,NNW,345,0.0,5.0,65,0.00,,,0.01,VWS V14.01,2013-06-16 22:37:00,
2013-06-16 17:42:00,87.4,73.3,29.98,SSE,148,1.5,5.0,63,0.00,,,0.01,VWS V14.01,2013-06-16 22:42:00,
2013-06-16 17:47:00,87.4,73.3,29.98,SSE,162,1.5,5.0,63,0.00,,,0.01,VWS V14.01,2013-06-16 22:47:00,
2013-06-16 17:52:00,87.5,73.4,29.97,ESE,111,0.0,5.0,63,0.00,,,0.01,VWS V14.01,2013-06-16 22:52:00,
2013-06-16 17:57:00,87.6,73.5,29.97,South,180,0.0,5.0,63,0.00,,,0.01,VWS V14.01,2013-06-16 22:57:00,
2013-06-16 18:00:00,88.0,73.8,29.97,NNW,338,1.5,5.0,63,0.00,,,0.01,VWS V14.01,2013-06-16 23:00:00,
2013-06-16 19:00:00,88.0,73.8,29.97,NNW,338,1.5,5.0,63,0.00,,,0.01,VWS V15.00,2013-06-17 00:00:00,
2013-06-16 21:43:00,88.0,73.8,29.97,NNW,338,1.5,5.0,63,0.00,,,0.01,VWS V14.01,2013-06-17 02:43:00,
2013-06-16 21:48:00,73.8,66.5,29.98,SSE,147,0.0,1.0,78,0.04,,,0.01,VWS V14.01,2013-06-17 02:48:00,
2013-06-16 21:53:00,73.7,66.4,29.99,SE,146,0.0,1.0,78,0.04,,,0.01,VWS V14.01,2013-06-17 02:53:00,
2013-06-16 21:58:00,73.6,66.7,29.99,NNW,334,0.0,1.0,79,0.04,,,0.01,VWS V14.01,2013-06-17 02:58:00,
2013-06-16 22:00:00,73.4,66.5,29.99,NNW,328,0.0,1.0,79,0.04,,,0.01,VWS V14.01,2013-06-17 03:00:00,
2013-06-16 22:03:00,73.1,66.2,29.99,NNW,328,0.0,0.0,79,0.00,,,0.01,VWS V14.01,2013-06-17 03:03:00,
2013-06-16 22:08:00,72.9,66.4,30.00,NNW,328,0.0,0.0,80,0.00,,,0.01,VWS V14.01,2013-06-17 03:08:00,
2013-06-16 22:13:00,72.8,66.3,30.00,NNW,328,0.0,0.0,80,0.00,,,0.01,VWS V14.01,2013-06-17 03:13:00,
2013-06-16 22:18:00,72.7,66.5,29.99,NNW,328,0.0,1.0,81,0.00,,,0.01,VWS V14.01,2013-06-17 03:18:00,
2013-06-16 22:23:00,72.5,66.3,30.00,NNW,328,0.0,1.0,81,0.00,,,0.01,VWS V14.01,2013-06-17 03:23:00,
2013-06-16 22:28:00,72.3,66.5,30.00,SSE,167,0.0,1.0,82,0.00,,,0.01,VWS V14.01,2013-06-17 03:28:00,
2013-06-16 22:33:00,72.3,66.2,30.00,South,176,0.0,2.0,81,0.00,,,0.01,VWS V14.01,2013-06-17 03:33:00,
2013-06-16 22:38:00,72.4,66.6,30.00,South,176,0.0,2.0,82,0.00,,,0.01,VWS V14.01,2013-06-17 03:38:00,
2013-06-16 22:43:00,72.3,66.5,30.00,South,176,0.0,2.0,82,0.00,,,0.01,VWS V14.01,2013-06-17 03:43:00,
2013-06-16 22:48:00,72.2,66.4,30.01,South,170,0.0,2.0,82,0.00,,,0.01,VWS V14.01,2013-06-17 03:48:00,
2013-06-16 22:53:00,72.1,66.3,30.01,South,172,0.0,2.0,82,0.00,,,0.01,VWS V14.01,2013-06-17 03:53:00,
2013-06-16 22:58:00,72.1,66.3,30.02,SSW,207,0.0,2.0,82,0.00,,,0.01,VWS V14.01,2013-06-17 03:58:00,
2013-06-16 23:00:00,73.4,66.5,29.99,NNW,328,0.0,1.0,79,0.04,,,0.01,VWS V15.00,2013-06-17 04:00:00,
2013-06-16 23:01:00,72.1,66.7,30.01,SSW,205,0.0,2.0,83,0.00,,,0.01,VWS V14.01,2013-06-17 04:01:00,
2013-06-16 23:06:00,72.1,66.7,30.01,SSW,204,0.0,2.0,83,0.00,,,0.01,VWS V14.01,2013-06-17 04:06:00,
2013-06-16 23:11:00,72.0,66.6,30.00,SSW,204,0.0,2.0,83,0.00,,,0.01,VWS V14.01,2013-06-17 04:11:00,
2013-06-16 23:16:00,71.8,66.4,30.00,SSW,204,0.0,2.0,83,0.00,,,0.01,VWS V14.01,2013-06-17 04:16:00,
2013-06-16 23:21:00,71.6,66.5,30.00,SSW,204,0.0,2.0,84,0.00,,,0.01,VWS V14.01,2013-06-17 04:21:00,
2013-06-16 23:26:00,71.5,66.4,30.00,SSW,203,0.0,2.0,84,0.00,,,0.01,VWS V14.01,2013-06-17 04:26:00,
2013-06-16 23:31:00,71.3,66.6,30.01,SSW,204,0.0,2.0,85,0.00,,,0.01,VWS V14.01,2013-06-17 04:31:00,
2013-06-16 23:36:00,71.1,66.4,30.01,SSW,204,0.0,2.0,85,0.00,,,0.01,VWS V14.01,2013-06-17 04:36:00,
2013-06-16 23:41:00,70.8,66.1,30.01,SSW,204,0.0,2.0,85,0.00,,,0.01,VWS V14.01,2013-06-17 04:41:00,
2013-06-16 23:46:00,70.7,66.3,30.01,SSW,204,0.0,2.0,86,0.00,,,0.01,VWS V14.01,2013-06-17 04:46:00,
2013-06-16 23:51:00,70.5,66.1,30.00,SSE,150,0.0,2.0,86,0.00,,,0.01,VWS V14.01,2013-06-17 04:51:00,
2013-06-16 23:56:00,70.5,66.4,30.01,ESE,120,1.5,2.0,87,0.00,,,0.01,VWS V14.01,2013-06-17 04:56:00,